Epoch = 1986 June 19.0 TT T = 1986 June 19.90883 TT Peri. = 176.44411 e = 0.4756270 Node = 242.85094 2000.0 q = 1.8938364 AU Incl. = 15.41548 a = 3.6116209 AU n = 0.14359881 P = 6.86 years
m1 = 5.0 + 5 logΔ + 30.0 log r ※ 灰色の曲線は、m1 = 18.0 + 5 logΔ + 10.0 log r の光度曲線です。